• In Belarus
  • List of Countries
  • For 7 days
  • Water Temperature
  • Satellite Maps
  • Weather Map
  • Weather Widgets
  • user-avatar
    Login

    Hourly Weather Ischgl

    Today, 25 July, Tuesday

    Time Temperature Precipitation Wind Pressure Humidity
    00:00 +1°C° 0.1 mm 2 mps 571 mmHg 93%
    01:00 +1°C° 0 mm 2 mps 570 mmHg 92%
    02:00 +1°C° 0.6 mm 2 mps 570 mmHg 91%
    03:00 +1°C° 0.6 mm 2 mps 570 mmHg 91%
    04:00 +1°C° 0.6 mm 2 mps 570 mmHg 90%
    05:00 +2°C° 0.7 mm 2 mps 570 mmHg 90%
    06:00 +2°C° 0.7 mm 2 mps 571 mmHg 89%
    07:00 +3°C° 0 mm 2 mps 571 mmHg 88%
    08:00 +3°C° 0.7 mm 2 mps 571 mmHg 85%
    09:00 +4°C° 0.7 mm 2 mps 571 mmHg 82%
    10:00 +4°C° 0.7 mm 2 mps 571 mmHg 79%
    11:00 +5°C° 0.5 mm 2 mps 571 mmHg 76%
    12:00 +5°C° 0.5 mm 3 mps 572 mmHg 74%
    13:00 +5°C° 0 mm 3 mps 572 mmHg 74%
    14:00 +5°C° 0.4 mm 3 mps 572 mmHg 73%
    15:00 +5°C° 0.4 mm 3 mps 572 mmHg 72%
    16:00 +5°C° 0.4 mm 3 mps 572 mmHg 71%
    17:00 +5°C° 0.3 mm 2 mps 571 mmHg 75%
    18:00 +4°C° 0.3 mm 2 mps 571 mmHg 79%
    19:00 +3°C° 0.3 mm 2 mps 571 mmHg 84%
    20:00 +3°C° 0.4 mm 2 mps 570 mmHg 86%
    21:00 +2°C° 0.4 mm 2 mps 570 mmHg 89%
    22:00 +2°C° 0.4 mm 2 mps 570 mmHg 91%
    23:00 +2°C° 0.4 mm 2 mps 570 mmHg 92%

    Tomorrow, 26 July, Wednesday

    Time Temperature Precipitation Wind Pressure Humidity
    00:00 +1°C° 0.4 mm 2 mps 570 mmHg 92%
    01:00 +1°C° 0.4 mm 2 mps 570 mmHg 92%
    02:00 +1°C° 0.2 mm 2 mps 569 mmHg 92%
    03:00 +1°C° 0.2 mm 2 mps 569 mmHg 92%
    04:00 +1°C° 0.2 mm 2 mps 569 mmHg 91%
    05:00 +1°C° 0.7 mm 2 mps 569 mmHg 90%
    06:00 +2°C° 0.7 mm 2 mps 570 mmHg 88%
    07:00 +2°C° 0.7 mm 2 mps 570 mmHg 87%
    08:00 +3°C° 0.7 mm 2 mps 570 mmHg 85%
    09:00 +2°C° 0.7 mm 3 mps 571 mmHg 82%
    10:00 +3°C° 0.7 mm 3 mps 572 mmHg 80%
    11:00 +4°C° 0.3 mm 3 mps 572 mmHg 79%
    12:00 +4°C° 0.3 mm 3 mps 572 mmHg 77%
    13:00 +5°C° 0.3 mm 3 mps 573 mmHg 76%
    14:00 +5°C° 0.4 mm 3 mps 573 mmHg 76%
    15:00 +5°C° 0.4 mm 3 mps 573 mmHg 76%
    16:00 +6°C° 0.4 mm 2 mps 573 mmHg 76%
    17:00 +5°C° 0.5 mm 2 mps 573 mmHg 80%
    18:00 +4°C° 0.5 mm 2 mps 572 mmHg 84%
    19:00 +4°C° 0.5 mm 2 mps 572 mmHg 88%
    20:00 +3°C° 0.2 mm 2 mps 572 mmHg 90%
    21:00 +2°C° 0.2 mm 2 mps 572 mmHg 92%
    22:00 +2°C° 0.2 mm 2 mps 573 mmHg 94%
    23:00 +1°C° 0 mm 2 mps 572 mmHg 94%

    Day after tomorrow, 27 July, Thursday

    Time Temperature Precipitation Wind Pressure Humidity
    00:00 +1°C° 0 mm 2 mps 572 mmHg 94%
    01:00 +1°C° 0 mm 2 mps 572 mmHg 94%
    02:00 -1°C° 0 mm 2 mps 572 mmHg 92%
    03:00 -1°C° 0 mm 2 mps 572 mmHg 91%
    04:00 -1°C° 0 mm 2 mps 571 mmHg 89%
    05:00 +1°C° 0 mm 2 mps 572 mmHg 82%
    06:00 +4°C° 0 mm 1 mps 573 mmHg 75%
    07:00 +5°C° 0 mm 1 mps 574 mmHg 68%
    08:00 +7°C° 0.1 mm 1 mps 574 mmHg 65%
    09:00 +8°C° 0.1 mm 1 mps 575 mmHg 61%
    10:00 +9°C° 0.1 mm 1 mps 575 mmHg 58%
    11:00 +10°C° 0.1 mm 1 mps 576 mmHg 60%
    12:00 +10°C° 0.1 mm 1 mps 576 mmHg 61%
    13:00 +11°C° 0.1 mm 1 mps 576 mmHg 62%
    14:00 +11°C° 0.2 mm 1 mps 576 mmHg 64%
    15:00 +10°C° 0.2 mm 2 mps 576 mmHg 66%
    16:00 +10°C° 0.2 mm 2 mps 576 mmHg 69%
    17:00 +10°C° 0.1 mm 2 mps 576 mmHg 74%
    18:00 +10°C° 0.1 mm 1 mps 576 mmHg 79%
    19:00 +10°C° 0.1 mm 1 mps 576 mmHg 85%
    20:00 +8°C° 0.1 mm 1 mps 575 mmHg 88%
    21:00 +7°C° 0.1 mm 1 mps 575 mmHg 91%
    22:00 +6°C° 0.1 mm 1 mps 574 mmHg 94%
    23:00 +5°C° 0 mm 1 mps 574 mmHg 94%

    28 July, Friday

    Time Temperature Precipitation Wind Pressure Humidity
    00:00 +5°C° 0 mm 1 mps 574 mmHg 94%
    01:00 +5°C° 0 mm 1 mps 574 mmHg 94%
    02:00 +5°C° 0.1 mm 1 mps 574 mmHg 94%
    03:00 +5°C° 0.1 mm 1 mps 574 mmHg 94%
    04:00 +5°C° 0.1 mm 1 mps 574 mmHg 94%
    05:00 +6°C° 0.1 mm 1 mps 575 mmHg 91%
    06:00 +7°C° 0.1 mm 1 mps 575 mmHg 88%
    07:00 +8°C° 0.1 mm 1 mps 576 mmHg 85%
    08:00 +10°C° 0.2 mm 1 mps 577 mmHg 81%
    09:00 +11°C° 0.2 mm 1 mps 578 mmHg 76%
    10:00 +12°C° 0.2 mm 1 mps 578 mmHg 72%
    11:00 +13°C° 0.1 mm 2 mps 579 mmHg 69%
    12:00 +14°C° 0.1 mm 2 mps 579 mmHg 65%
    13:00 +15°C° 0.1 mm 2 mps 580 mmHg 62%
    14:00 +15°C° 0.1 mm 2 mps 580 mmHg 63%
    15:00 +14°C° 0.1 mm 2 mps 580 mmHg 64%
    16:00 +14°C° 0.1 mm 2 mps 580 mmHg 65%
    17:00 +13°C° 0.1 mm 2 mps 579 mmHg 71%
    18:00 +12°C° 0.1 mm 2 mps 579 mmHg 76%
    19:00 +12°C° 0.1 mm 1 mps 579 mmHg 82%
    20:00 +10°C° 0 mm 1 mps 579 mmHg 86%
    21:00 +9°C° 0 mm 1 mps 578 mmHg 91%
    22:00 +7°C° 0 mm 1 mps 578 mmHg 95%
    23:00 +7°C° 0 mm 1 mps 578 mmHg 94%

    29 July, Saturday

    Time Temperature Precipitation Wind Pressure Humidity
    00:00 +7°C° 0 mm 1 mps 578 mmHg 93%
    01:00 +7°C° 0 mm 1 mps 578 mmHg 93%
    02:00 +7°C° 0 mm 1 mps 578 mmHg 92%
    03:00 +7°C° 0 mm 1 mps 578 mmHg 92%
    04:00 +7°C° 0 mm 1 mps 577 mmHg 92%
    05:00 +8°C° 0 mm 1 mps 578 mmHg 88%
    06:00 +9°C° 0 mm 1 mps 579 mmHg 85%
    07:00 +11°C° 0 mm 1 mps 580 mmHg 82%
    08:00 +12°C° 0.1 mm 1 mps 580 mmHg 78%
    09:00 +13°C° 0.1 mm 1 mps 581 mmHg 73%
    10:00 +14°C° 0.1 mm 1 mps 582 mmHg 68%
    11:00 +14°C° 0.8 mm 1 mps 582 mmHg 69%
    12:00 +15°C° 0.8 mm 2 mps 582 mmHg 71%
    13:00 +15°C° 0.8 mm 2 mps 582 mmHg 72%
    14:00 +14°C° 1.5 mm 2 mps 581 mmHg 76%
    15:00 +14°C° 1.5 mm 2 mps 581 mmHg 80%
    16:00 +13°C° 1.5 mm 1 mps 581 mmHg 83%
    17:00 +13°C° 1.6 mm 1 mps 581 mmHg 86%
    18:00 +12°C° 1.6 mm 1 mps 580 mmHg 89%
    19:00 +11°C° 1.6 mm 1 mps 580 mmHg 92%
    20:00 +10°C° 0.7 mm 1 mps 580 mmHg 93%
    21:00 +10°C° 0.7 mm 1 mps 580 mmHg 95%
    22:00 +9°C° 0.7 mm 1 mps 579 mmHg 96%
    23:00 +9°C° 0.7 mm 1 mps 579 mmHg 96%

    30 July, Sunday

    Time Temperature Precipitation Wind Pressure Humidity
    00:00 +8°C° 0.7 mm 1 mps 579 mmHg 95%
    01:00 +8°C° 0.7 mm 1 mps 579 mmHg 95%
    02:00 +8°C° 0.6 mm 1 mps 578 mmHg 94%
    03:00 +8°C° 0.6 mm 1 mps 578 mmHg 93%
    04:00 +8°C° 0.6 mm 1 mps 578 mmHg 93%
    05:00 +9°C° 0.1 mm 1 mps 579 mmHg 90%
    06:00 +10°C° 0.1 mm 1 mps 579 mmHg 88%
    07:00 +10°C° 0.1 mm 2 mps 580 mmHg 85%
    08:00 +13°C° 0.3 mm 1 mps 581 mmHg 75%
    09:00 +15°C° 0.3 mm 1 mps 581 mmHg 65%
    10:00 +18°C° 0.3 mm 1 mps 582 mmHg 55%
    11:00 +18°C° 0.7 mm 1 mps 582 mmHg 55%
    12:00 +19°C° 0.7 mm 1 mps 582 mmHg 54%
    13:00 +19°C° 0.7 mm 1 mps 582 mmHg 53%
    14:00 +19°C° 0.9 mm 1 mps 582 mmHg 55%
    15:00 +19°C° 0.9 mm 1 mps 582 mmHg 56%
    16:00 +18°C° 0.9 mm 1 mps 582 mmHg 58%
    17:00 +16°C° 0.7 mm 1 mps 581 mmHg 65%
    18:00 +15°C° 0.7 mm 1 mps 581 mmHg 73%
    19:00 +14°C° 0.7 mm 1 mps 580 mmHg 81%
    20:00 +12°C° 0.1 mm 1 mps 580 mmHg 83%
    21:00 +11°C° 0.1 mm 1 mps 580 mmHg 85%
    22:00 +10°C° 0.1 mm 1 mps 579 mmHg 87%
    23:00 +8°C° 0 mm 2 mps 579 mmHg 88%
    Show more